Theta_e
287 287 287 288 289 289 289 289 288 287 286 286 286 285 285 285 285 285 285 285 285 284 283 283 282 282 281 281 281 281 280 280 280 279 279 279 279 279 278 277 277 276 276 276 275 275 275 275 275 275 275 275 274 275 274 274 274 274 273 274 275 275
286 286 286 286 287 287 287 287 287 286 286 285 285 285 285 284 284 285 284 284 284 283 282 282 282 282 281 281 281 280 280 279 279 279 278 278 278 277 277 276 276 276 275 275 275 275 274 274 274 274 274 274 274 274 273 273 273 273 273 273 274 275
285 285 285 286 286 286 286 286 286 286 285 285 285 284 284 284 284 284 284 284 283 283 282 281 281 281 281 280 280 280 279 279 279 278 278 277 277 277 276 276 276 275 275 275 275 274 274 274 273 274 273 273 273 273 273 272 273 272 273 273 273 273
284 284 285 285 285 285 285 286 286 284 284 285 284 284 284 284 284 284 284 283 283 282 282 281 280 280 280 279 279 279 279 278 278 277 277 277 276 276 276 275 275 275 275 274 274 274 273 273 273 273 272 272 272 272 273 272 272 272 272 272 272 272
284 284 285 285 285 285 285 285 285 284 284 284 284 284 284 284 284 284 284 283 282 281 281 280 280 280 279 279 278 278 278 277 277 277 277 276 276 276 276 276 275 275 274 274 273 273 273 273 272 272 272 272 271 271 271 272 271 272 271 271 271 271
284 284 284 285 285 284 284 284 284 284 284 284 284 284 284 284 284 283 283 282 281 281 280 280 279 279 278 278 278 277 277 277 276 276 276 276 276 275 276 276 276 275 274 273 273 272 272 272 272 272 272 271 271 271 271 271 271 271 271 271 271 271
283 284 284 285 285 285 284 284 284 284 284 284 284 284 284 284 283 282 282 281 280 280 280 279 279 278 278 277 277 277 277 276 276 276 275 275 275 276 276 276 275 274 274 274 273 272 272 272 271 271 271 271 271 271 271 271 271 271 271 271 271 274
284 284 284 285 285 285 284 284 284 284 284 284 284 284 283 283 282 282 281 281 280 279 279 278 278 278 277 277 277 277 277 276 276 275 275 276 275 275 276 275 274 274 274 273 272 272 271 271 271 271 270 270 271 271 272 271 271 271 271 271 271 271
283 284 284 285 285 285 285 284 284 284 284 284 284 283 283 282 282 282 281 280 280 279 278 278 278 278 278 278 277 277 277 276 276 276 276 276 275 275 275 274 274 274 273 273 272 271 271 270 270 269 269 270 270 271 271 270 270 270 270 271 270 271
283 283 284 284 285 285 284 284 284 284 284 283 283 283 283 283 282 281 281 280 279 279 278 278 278 278 278 278 277 277 277 277 276 276 275 275 275 275 274 274 274 273 273 272 272 271 270 270 269 269 270 270 270 270 270 270 269 269 270 270 270 270
283 283 284 284 284 284 284 284 284 283 283 283 283 283 283 282 282 281 280 280 279 279 279 278 278 278 278 277 277 277 277 277 276 276 275 275 274 275 274 274 274 272 272 271 270 269 270 270 270 269 270 270 270 270 271 270 270 270 269 270 269 269
285 284 284 284 284 284 284 284 283 283 283 283 283 283 283 282 281 281 280 280 280 279 279 278 278 277 277 277 276 277 276 276 275 274 274 274 274 274 274 273 273 272 272 271 271 270 270 270 270 273 275 274 271 270 271 272 271 271 271 271 271 270
285 285 284 284 283 284 284 284 284 284 283 283 283 283 283 282 281 281 280 280 280 280 279 278 277 277 277 277 277 276 276 275 274 274 274 274 274 273 272 272 272 271 271 271 270 270 270 270 270 275 277 277 276 273 272 272 271 272 272 271 271 270
285 285 285 284 284 284 285 285 284 284 284 284 283 284 283 282 282 281 280 280 280 280 278 278 277 277 277 277 276 276 275 275 274 273 274 273 273 273 272 272 272 271 271 271 270 270 270 270 274 277 278 279 279 277 273 273 272 272 272 271 271 271
286 286 285 285 285 285 285 285 284 284 284 284 284 284 283 282 282 281 281 280 280 279 278 277 277 277 277 276 276 275 275 274 274 273 273 272 273 272 271 272 272 271 271 270 270 269 269 268 275 277 278 279 279 280 277 274 273 272 271 271 271 271
287 286 286 286 285 285 285 285 285 285 285 284 284 283 283 283 282 282 281 280 280 279 278 277 277 277 276 276 276 275 274 274 274 273 273 272 272 272 272 271 271 271 270 270 269 269 268 268 274 277 278 279 279 280 278 274 273 272 271 271 271 271
287 287 286 285 285 285 284 284 285 284 284 284 283 283 283 283 282 282 281 280 280 279 278 277 277 277 276 276 275 275 274 274 273 273 272 272 272 271 271 271 270 270 270 269 268 267 267 268 274 277 277 278 279 279 278 274 273 272 271 271 271 270
287 287 286 286 285 285 285 284 285 284 284 284 284 283 283 283 282 281 281 280 280 279 278 277 277 277 276 275 275 274 274 273 273 272 272 272 272 271 271 270 270 270 269 269 268 267 266 266 274 276 277 278 279 279 276 274 273 271 270 270 270 268
288 288 286 285 285 284 284 284 284 284 284 283 284 283 283 283 282 282 281 281 280 279 279 278 277 277 276 275 275 274 273 273 273 273 272 271 272 271 270 270 270 269 269 268 267 267 267 265 271 276 277 277 279 278 273 273 271 270 268 268 268 268
287 286 286 285 285 285 284 284 284 284 284 283 283 283 283 282 282 282 282 281 280 279 279 278 277 277 276 275 274 274 274 273 273 273 272 272 271 271 270 270 269 268 268 267 266 266 265 264 268 275 276 277 278 276 272 271 269 268 267 267 269 269
287 286 285 285 284 284 284 284 284 284 283 283 283 283 282 282 283 282 282 281 280 279 279 278 277 277 276 275 274 274 273 273 273 273 272 272 272 271 270 269 268 267 266 266 265 267 266 263 266 274 275 276 277 276 272 271 268 267 267 267 267 268
286 285 285 284 284 284 284 284 284 283 283 283 283 282 282 283 283 283 282 281 280 279 278 278 277 277 275 275 274 273 273 273 272 272 271 271 271 270 269 268 268 267 265 264 263 265 266 263 261 265 275 276 277 277 272 270 268 267 267 267 267 266
286 285 285 285 284 284 283 283 283 282 282 282 281 281 282 283 282 282 281 280 279 278 278 277 277 276 276 275 274 274 273 272 272 271 270 270 269 268 267 267 266 265 264 262 263 262 263 263 261 263 273 275 276 277 275 270 269 268 267 266 267 267
284 284 283 282 283 283 283 283 282 282 281 280 281 282 283 281 281 280 279 279 278 277 277 277 276 276 276 274 273 272 271 270 270 270 270 269 268 267 266 265 263 263 262 260 262 261 261 262 265 261 269 274 275 276 277 272 270 270 268 268 267 267
283 283 281 280 281 282 282 282 282 281 280 280 281 281 280 280 280 279 279 278 277 277 276 276 276 275 275 273 273 272 271 269 268 267 267 267 266 266 264 263 262 262 262 261 260 260 261 261 262 269 265 271 274 276 276 277 274 275 271 268 267 268
280 278 277 278 279 280 282 282 281 280 279 280 280 279 278 278 278 278 278 277 277 276 275 275 275 274 273 273 272 271 269 267 267 265 265 265 265 264 263 262 261 261 261 261 262 261 261 261 261 265 270 269 273 275 276 277 277 277 273 271 269 269
278 277 276 276 277 279 280 282 281 279 279 279 278 278 277 277 277 277 277 276 276 275 274 273 273 273 272 271 271 270 269 266 264 264 262 263 264 264 264 263 262 262 262 262 262 262 262 261 261 260 265 271 272 274 276 276 277 277 277 273 273 273
277 277 277 275 275 277 278 279 281 279 280 277 277 277 277 276 276 276 277 276 275 274 272 272 271 270 270 269 269 270 269 267 265 266 264 263 264 264 264 264 262 262 262 262 262 262 262 261 260 261 261 267 271 272 275 276 276 276 277 276 275 275
278 277 277 276 273 274 275 276 278 278 276 276 276 276 275 276 276 276 275 274 273 271 271 271 270 268 267 266 266 267 267 267 266 266 264 264 264 264 264 264 262 262 262 262 262 261 260 260 260 261 261 262 263 266 269 272 273 276 276 274 273 274
278 276 275 277 275 274 274 274 276 273 273 274 274 273 274 275 275 275 274 273 272 270 270 271 267 267 267 266 266 266 266 265 266 266 266 264 265 264 264 264 263 263 263 263 262 260 259 260 261 261 262 263 263 264 265 266 266 267 268 269 268 266
276 276 276 278 276 274 274 273 273 271 272 273 272 273 274 274 273 273 270 269 268 268 267 269 267 267 267 266 265 266 267 267 266 266 267 267 267 267 267 266 265 265 264 264 263 262 261 261 261 263 268 265 268 265 264 265 265 266 267 269 272 268
275 276 276 276 274 274 274 273 273 271 271 271 271 273 274 272 271 269 268 267 267 266 265 266 266 265 266 265 265 265 264 265 269 268 267 266 268 271 273 272 267 266 264 264 264 265 265 265 265 270 272 272 272 272 272 270 270 271 269 271 274 273
273 273 273 273 271 273 273 272 270 269 268 270 271 272 273 271 271 269 267 266 267 267 266 266 265 264 264 264 264 263 264 262 265 272 273 271 269 271 273 274 274 273 271 266 263 265 271 271 271 272 273 274 274 274 274 274 273 274 274 274 272 271
272 273 275 272 271 271 269 268 268 268 267 266 267 269 271 271 272 271 269 268 267 266 266 265 265 264 263 262 262 262 262 263 263 263 270 274 273 273 273 274 275 275 274 274 270 265 263 271 274 274 275 275 275 275 275 275 275 275 276 276 276 270
275 275 271 269 268 267 266 268 267 265 266 265 265 266 269 270 271 272 270 268 267 266 265 265 264 264 263 263 262 261 262 263 263 264 264 267 273 275 274 274 275 275 276 276 275 273 270 270 273 275 275 275 275 276 276 276 276 277 277 277 274 269
271 270 268 266 266 268 267 268 268 267 267 266 266 267 269 269 270 269 268 267 266 266 265 265 264 264 264 264 263 263 262 263 264 264 264 262 263 267 272 275 275 276 276 277 276 275 273 273 274 275 275 275 275 276 276 276 275 277 277 275 270 268
268 268 269 270 268 266 267 269 267 265 266 267 267 267 268 268 268 267 266 266 266 265 266 265 265 265 264 263 263 262 262 263 262 263 263 263 263 265 266 267 270 274 277 275 275 276 275 274 274 275 275 276 276 276 276 276 273 271 271 272 268 267
267 269 266 266 267 266 267 269 265 264 266 266 267 267 268 269 268 268 268 266 265 266 265 265 264 264 264 263 263 262 262 261 261 262 262 263 263 264 265 265 267 268 273 276 276 276 276 276 275 275 275 275 276 276 276 271 269 269 268 268 264 264
Wind_Speed
13 13 12 9 10 11 11 10 10 8 7 9 11 13 12 12 10 10 9 10 9 9 10 10 9 8 8 8 9 9 10 10 8 8 7 7 6 7 7 7 6 6 5 5 6 5 5 4 4 4 5 5 6 5 5 4 4 5 5 4 4 3
12 12 12 12 12 11 10 11 9 10 9 9 9 9 8 9 11 11 12 10 10 9 8 7 8 9 10 10 11 10 10 9 9 9 8 7 6 6 6 6 6 6 6 5 6 5 4 5 4 5 5 5 5 5 5 4 4 5 5 4 4 4
10 10 9 9 8 8 9 10 12 11 9 10 11 14 13 12 11 11 10 10 9 11 11 10 10 10 9 9 9 10 10 9 8 7 7 7 6 7 7 6 6 5 6 6 6 5 4 5 5 4 5 5 6 5 4 3 4 5 4 4 5 4
10 9 9 9 10 11 12 11 11 11 12 12 11 12 12 14 12 12 11 10 10 11 11 11 9 10 9 10 10 10 10 9 8 8 7 7 6 6 7 6 5 5 6 6 6 5 5 4 5 4 4 6 6 4 3 4 4 4 4 4 4 3
10 11 13 13 14 13 13 12 13 13 12 12 11 13 13 13 12 11 11 11 11 11 10 10 10 10 10 11 10 10 10 9 8 8 9 8 7 5 6 7 7 7 6 6 6 5 5 5 5 4 5 5 5 5 4 4 4 4 3 3 3 2
9 10 13 14 13 13 14 13 11 12 12 12 12 14 13 12 11 11 11 10 10 10 10 11 10 11 11 11 10 11 10 9 9 8 8 7 7 8 6 7 7 7 7 7 6 5 6 5 5 5 5 5 5 5 5 4 4 3 3 3 2 2
14 14 13 13 12 12 13 13 13 13 13 12 13 12 12 11 10 11 11 11 12 11 11 11 11 12 11 11 10 11 10 10 9 8 9 8 8 7 6 6 5 6 7 7 7 6 5 6 6 6 5 4 4 5 5 4 3 3 3 2 1 2
12 11 13 13 14 14 14 14 13 13 13 13 12 12 12 11 10 11 12 11 12 11 11 11 11 12 12 12 11 11 10 9 8 8 7 8 9 8 6 7 6 6 6 4 5 6 6 5 6 6 6 5 5 5 4 3 3 2 2 1 1 0
17 16 15 15 15 14 14 14 15 14 13 13 12 11 12 12 12 12 12 12 12 12 12 12 11 11 11 11 11 10 9 9 8 8 8 7 9 9 8 7 7 4 4 4 5 5 5 6 5 6 5 5 5 4 4 3 3 2 1 0 0 0
14 15 16 15 14 14 13 13 14 15 15 15 13 12 12 11 12 13 12 12 12 12 12 11 10 10 11 10 10 10 10 9 9 8 6 7 8 8 8 9 7 6 4 4 3 4 4 5 5 5 5 4 5 4 3 3 3 2 0 0 0 0
18 17 16 15 13 14 15 13 12 11 11 11 12 13 14 13 14 14 13 13 14 13 12 11 9 8 9 10 10 10 10 10 9 8 7 7 7 7 7 7 6 6 6 4 4 4 4 5 5 5 5 5 4 4 4 3 3 1 1 0 1 1
13 14 14 13 15 15 13 12 13 13 14 13 12 13 11 12 13 14 13 14 13 11 11 11 10 10 10 11 11 11 11 10 9 9 9 9 8 7 7 7 7 7 8 8 6 5 4 4 4 6 10 8 5 5 4 4 2 2 1 1 2 2
11 12 14 15 15 15 15 14 13 12 11 11 12 13 13 12 13 13 13 13 12 12 11 11 11 11 12 11 10 9 9 10 8 8 8 7 7 9 8 8 9 8 8 8 7 7 5 4 4 9 10 11 12 7 5 4 3 3 3 3 3 3
16 18 18 16 15 15 15 15 14 14 15 14 14 12 11 12 13 14 13 12 12 12 13 12 12 12 12 11 11 11 10 9 9 9 8 8 8 6 6 8 8 7 7 6 6 6 6 5 7 11 11 12 13 10 6 4 3 4 4 4 4 3
14 14 15 15 15 15 15 14 13 15 15 14 13 11 12 14 13 12 12 11 12 12 12 12 13 13 11 11 10 10 9 10 10 9 9 9 7 6 6 7 7 7 6 6 7 7 6 5 9 11 12 12 12 11 8 5 5 4 4 4 4 4
11 12 13 14 13 12 8 9 11 9 8 9 8 11 12 13 12 12 12 11 12 12 12 12 11 11 11 10 9 9 10 10 11 9 8 7 7 8 6 7 8 7 7 7 7 6 5 6 8 11 11 11 11 11 8 5 5 4 5 5 4 4
14 13 12 13 14 13 12 12 10 9 9 10 12 11 12 12 11 11 11 12 11 11 10 12 11 11 10 10 10 10 10 10 9 9 8 9 9 10 10 10 10 8 7 6 6 5 6 5 10 11 11 10 10 11 9 5 5 5 4 4 4 2
15 16 16 11 10 11 12 13 11 12 12 10 12 11 11 11 11 11 11 11 11 12 12 11 11 11 11 11 10 11 12 11 11 11 9 8 7 6 4 4 5 8 8 7 6 6 7 5 11 12 12 11 10 12 5 5 5 4 3 4 4 3
11 9 8 10 12 12 13 12 12 12 11 12 12 13 13 12 13 13 13 14 13 13 13 13 12 12 12 12 13 13 12 12 10 8 7 8 9 11 9 9 9 8 8 8 8 8 6 5 9 12 12 11 12 9 4 5 4 3 3 3 3 3
5 8 11 12 13 14 12 13 14 14 13 13 13 14 14 15 16 15 15 14 12 12 12 12 12 13 13 13 14 14 12 9 8 10 9 12 12 11 11 9 7 7 8 9 10 9 8 7 8 12 11 12 13 9 6 5 5 4 3 3 4 3
9 9 9 11 12 12 12 13 14 14 14 14 14 14 15 16 17 14 14 14 11 11 12 11 12 12 13 13 13 12 12 12 13 10 9 8 8 9 6 7 8 7 6 7 7 7 8 6 7 11 12 13 13 10 5 6 5 5 4 4 4 3
9 9 11 14 13 12 13 13 14 14 14 13 12 13 15 16 14 12 9 8 10 11 11 11 13 12 13 13 11 9 11 8 7 9 10 8 7 7 6 6 6 9 8 6 6 7 6 6 5 6 12 12 14 14 6 6 7 7 4 4 4 4
10 12 12 10 10 11 11 12 12 13 11 10 11 15 17 12 8 9 11 10 10 11 12 11 13 14 12 11 11 10 8 8 9 8 8 9 6 6 6 7 7 6 6 5 6 6 6 6 6 6 12 13 14 15 12 7 6 6 5 5 6 5
6 6 6 6 9 10 10 11 11 10 9 9 13 16 9 7 9 9 9 10 11 11 12 12 11 11 10 9 8 9 8 5 6 7 7 6 7 8 8 6 6 6 6 4 5 5 6 5 8 5 10 13 14 14 16 6 7 8 6 6 5 6
7 6 6 6 8 8 9 11 11 9 9 11 16 9 6 8 8 9 9 10 10 11 11 11 11 10 8 9 10 11 10 7 8 7 7 8 7 8 8 8 7 6 6 5 6 6 6 6 7 11 7 12 14 15 16 15 10 14 8 7 7 7
6 6 4 4 5 7 8 12 11 9 10 15 6 6 6 7 7 8 9 9 9 9 9 9 9 9 8 10 9 9 9 8 7 7 7 8 8 8 8 7 6 6 7 9 8 7 7 6 6 9 12 10 15 15 15 15 15 15 8 6 6 7
8 7 5 4 5 6 8 8 12 10 13 8 6 7 8 8 8 9 9 9 8 8 8 7 8 9 8 8 10 10 9 8 7 8 6 7 7 8 9 8 7 9 9 8 10 9 7 7 6 6 9 14 13 15 15 15 16 16 16 10 8 9
6 8 8 4 3 5 5 6 9 13 10 5 6 6 7 8 9 8 9 8 7 8 8 9 7 7 7 8 8 9 9 11 11 10 9 9 9 9 10 9 9 9 9 10 9 8 8 6 5 6 6 7 10 11 14 16 15 15 16 15 8 10
7 7 7 7 3 4 5 5 5 5 5 7 6 7 7 8 9 8 7 8 7 6 8 10 8 7 6 6 6 6 7 8 8 9 9 10 10 10 9 9 10 10 10 10 10 8 6 6 6 7 6 7 7 6 7 9 9 13 14 10 7 7
7 6 6 7 6 4 5 5 5 4 5 5 7 7 7 8 9 9 9 9 8 8 8 9 9 10 8 8 9 9 8 7 9 11 12 13 13 12 12 12 11 12 13 12 9 6 6 7 7 8 9 9 8 8 6 5 4 4 3 4 4 4
7 7 7 7 6 6 6 5 5 5 7 7 7 8 9 9 7 6 5 6 6 7 6 7 8 9 9 8 8 9 10 12 12 13 11 10 9 12 14 13 12 12 10 9 10 11 9 8 9 12 12 11 12 11 9 8 8 6 5 7 9 6
5 8 8 5 4 5 6 5 5 5 4 6 7 8 9 7 7 5 6 6 7 6 6 7 7 7 8 8 9 9 8 7 9 9 9 9 9 15 14 10 11 9 8 9 9 10 13 13 13 11 16 16 17 18 17 14 13 13 9 11 15 9
3 3 3 4 4 5 5 4 3 4 3 4 6 8 8 8 7 6 6 6 8 9 9 8 7 7 7 7 7 7 8 7 7 14 18 13 9 13 17 18 16 13 14 11 9 9 14 8 6 12 16 18 18 18 18 17 17 18 17 17 10 8
4 6 9 5 5 5 4 4 3 4 4 3 3 4 6 9 10 10 10 10 8 9 9 8 9 8 8 8 7 8 8 8 9 9 12 19 18 16 17 18 18 17 16 18 15 9 7 12 12 13 16 17 18 18 18 18 19 19 19 18 17 9
9 6 3 4 4 4 4 5 5 4 4 4 4 5 6 8 8 9 9 9 9 9 9 8 8 8 8 9 9 9 8 9 10 11 10 9 16 19 19 19 19 19 19 18 19 18 14 12 13 15 16 17 17 18 18 19 20 19 19 18 12 6
2 2 3 4 5 5 4 6 6 6 5 5 6 6 7 7 7 5 3 5 7 8 8 9 9 9 10 9 9 9 9 10 10 10 6 5 4 7 12 18 21 20 20 20 19 18 17 16 17 17 17 17 17 18 18 17 14 18 19 14 7 6
4 4 5 7 5 5 5 6 4 5 5 6 7 7 6 7 6 6 5 7 7 7 7 7 7 8 8 7 8 9 9 10 7 6 6 7 9 10 10 8 10 16 21 16 14 18 18 17 17 18 17 18 17 18 17 17 9 9 8 9 5 6
5 5 4 4 4 5 5 5 3 6 6 7 8 8 9 8 8 7 7 6 8 7 7 7 6 5 6 7 7 5 5 5 5 7 7 7 7 8 8 6 7 6 10 20 18 18 18 18 17 17 18 17 18 18 18 9 7 7 8 7 4 5
Wind_Direction
181 179 179 176 170 166 165 163 159 156 162 166 163 163 164 159 156 152 151 152 151 154 153 151 146 145 141 140 138 138 133 133 132 127 126 121 123 125 123 119 119 119 117 118 112 103 100 94 98 100 94 91 95 85 85 74 81 85 79 59 74 67
181 177 174 172 169 165 166 162 158 163 164 163 163 153 152 153 154 156 155 155 150 147 141 143 146 148 149 149 146 140 136 136 133 133 133 135 128 127 127 128 134 135 131 126 115 109 107 104 97 98 99 93 91 97 87 78 85 79 81 71 59 66
175 171 168 166 163 163 162 168 167 165 162 171 169 161 161 162 159 157 157 150 152 150 152 152 153 152 150 146 144 134 134 132 132 135 134 127 137 139 138 140 141 138 131 123 119 121 125 118 112 109 109 100 97 88 93 85 83 87 72 72 53 49
168 164 164 166 168 171 170 172 165 167 175 174 168 165 167 162 162 162 156 157 156 159 154 155 153 151 151 145 140 134 136 137 139 139 140 142 148 145 141 140 136 133 130 125 129 132 130 125 120 120 112 108 104 94 93 88 83 81 73 71 65 46
171 172 173 176 179 175 171 172 175 174 173 173 174 170 172 167 163 159 157 156 160 160 158 154 155 155 154 146 144 140 141 140 141 147 147 150 148 143 145 148 146 144 141 136 142 142 135 131 125 120 112 111 111 109 95 90 88 90 91 83 84 75
166 172 180 179 181 178 177 178 175 172 175 176 173 177 169 164 161 159 156 157 159 157 157 161 157 156 156 150 150 147 147 146 149 149 146 148 148 149 156 153 152 149 149 147 149 147 141 135 127 117 113 116 113 106 99 90 91 98 107 114 106 86
180 186 183 182 181 180 178 178 178 176 177 178 178 176 170 162 159 157 159 159 157 162 164 164 163 160 159 152 151 151 149 151 150 151 151 149 151 153 141 138 147 151 150 154 156 151 147 143 133 122 115 110 108 106 103 98 97 103 108 119 127 100
179 183 186 184 186 183 181 180 178 178 179 181 177 170 168 165 161 161 158 161 161 166 169 168 168 166 159 154 152 153 154 152 154 153 154 155 151 150 156 140 145 156 151 160 160 153 146 139 129 124 122 116 107 102 100 107 108 111 112 110 125 149
193 192 188 189 186 184 183 180 179 179 178 178 178 173 167 164 162 162 162 166 167 168 173 174 174 167 160 158 154 152 152 155 156 157 159 160 155 156 156 135 131 136 156 173 167 152 141 129 122 117 113 112 109 113 116 112 117 118 118 146 177 236
187 190 193 189 188 186 184 184 182 179 178 178 174 170 168 166 165 165 167 168 172 175 175 177 171 167 162 154 152 155 157 155 157 158 153 151 158 159 161 160 151 132 137 198 169 141 126 121 115 111 117 121 121 117 127 140 138 133 80 231 293 273
194 192 188 191 185 186 186 181 180 178 179 178 175 172 175 169 166 169 170 173 177 179 173 169 167 162 158 155 155 158 160 161 159 153 153 161 160 162 162 153 142 137 143 169 165 140 130 126 130 136 137 130 130 135 144 146 141 144 167 246 265 284
191 190 187 188 190 187 183 182 183 183 181 181 178 176 173 166 173 170 174 179 179 171 170 168 164 164 161 161 163 164 163 161 157 155 160 168 168 162 155 150 152 158 166 172 163 142 139 145 138 158 158 151 152 157 149 143 155 164 203 222 251 255
189 189 193 195 192 189 185 186 184 180 181 179 180 180 174 171 171 177 177 180 175 172 169 167 168 165 169 168 163 163 162 160 159 162 166 167 169 165 159 159 161 168 173 175 161 156 153 157 164 174 180 180 173 159 154 158 173 194 203 216 226 233
194 194 194 191 189 189 190 187 183 179 185 180 182 180 172 175 178 179 180 178 174 173 173 173 168 170 171 167 170 166 166 161 161 166 170 170 169 167 157 167 170 168 173 171 161 160 168 167 182 184 190 191 184 169 163 168 183 194 205 209 221 231
200 199 195 192 191 192 193 183 178 188 184 181 179 167 177 182 181 179 179 179 178 177 176 174 174 174 171 173 167 165 162 164 167 169 167 176 172 151 165 167 163 180 181 177 171 177 178 175 188 192 198 201 199 191 175 168 186 197 210 213 216 223
193 195 197 196 194 190 178 181 188 184 173 167 159 175 182 182 183 182 181 179 183 181 178 176 175 175 173 167 164 164 168 171 179 176 174 165 158 167 169 173 180 181 186 184 181 178 182 179 198 196 204 205 202 200 191 146 185 206 213 214 222 226
192 191 187 188 184 178 173 182 179 166 166 164 172 179 180 189 184 184 182 184 184 180 180 178 177 175 171 169 166 168 176 180 176 174 174 174 173 172 182 183 184 190 185 185 181 179 188 194 196 200 205 205 201 199 194 145 188 207 211 214 221 228
192 190 194 175 162 174 179 180 169 170 175 167 173 176 183 185 189 189 185 187 186 184 183 179 178 176 172 169 172 176 183 184 183 179 176 174 176 177 162 185 187 187 189 185 180 180 198 203 200 204 206 205 203 198 183 158 173 203 204 221 224 223
193 184 152 159 172 172 180 173 170 172 168 173 179 178 183 185 193 193 193 194 187 184 183 182 179 178 176 177 178 185 186 183 184 181 173 174 177 167 186 191 192 190 184 183 186 191 198 197 206 205 204 205 203 195 137 164 160 178 196 222 227 226
151 152 161 165 174 178 169 168 171 172 177 181 179 181 187 192 199 197 195 193 186 183 180 183 182 182 183 182 187 188 187 183 184 187 182 183 178 186 197 186 183 190 189 188 192 193 190 198 206 204 203 203 204 186 158 163 160 178 196 208 229 218
161 157 155 161 175 178 170 169 171 175 184 185 185 187 190 199 203 193 194 192 182 180 182 182 186 189 187 189 191 186 183 186 190 185 179 191 188 194 180 181 185 187 193 198 196 191 194 194 202 202 201 204 203 196 163 172 168 189 196 195 217 240
130 152 167 179 183 166 168 168 174 183 187 189 183 189 201 206 198 195 188 179 178 181 185 187 188 190 188 192 188 187 193 184 172 180 181 187 186 180 178 187 192 190 196 184 184 204 202 192 206 211 202 205 206 201 170 167 161 183 185 197 218 216
157 168 178 176 161 161 165 166 174 186 188 180 184 202 209 198 176 177 185 180 178 182 187 189 190 190 192 189 188 187 184 181 185 173 178 182 175 168 178 190 198 199 199 190 198 196 208 197 194 214 207 210 210 209 195 162 185 178 188 190 215 218
138 135 130 143 149 155 160 165 174 182 171 180 201 211 194 159 175 175 171 178 182 186 188 190 192 191 188 181 169 175 184 179 168 178 176 170 172 181 189 188 194 200 203 201 209 211 216 218 210 200 221 215 215 213 209 177 187 185 182 202 203 214
136 141 141 139 148 151 160 161 171 173 176 189 212 193 158 172 166 170 175 179 183 186 188 188 186 184 176 177 180 179 184 169 167 169 164 169 177 186 189 193 192 196 208 216 224 222 220 219 228 216 213 225 220 217 216 212 194 206 193 189 210 215
108 107 108 129 142 154 156 165 167 173 179 210 184 139 156 156 166 165 173 181 186 183 186 185 184 183 180 179 173 177 169 172 171 166 175 175 179 186 194 199 190 197 209 213 221 223 222 220 214 233 224 220 223 219 218 219 217 211 201 187 198 211
133 121 112 128 148 158 164 167 168 170 198 201 134 165 157 161 158 168 180 184 182 181 180 173 181 182 179 173 169 172 175 169 163 173 181 172 187 192 201 202 189 203 209 211 219 218 217 212 214 221 232 225 221 220 220 220 220 222 218 217 211 213
115 127 131 125 140 153 162 171 162 177 203 143 156 153 157 153 162 174 186 179 178 179 166 174 180 177 174 172 181 185 182 177 179 184 180 185 197 196 201 201 194 209 210 218 221 216 214 207 202 217 220 229 224 222 221 220 222 224 226 228 220 218
128 139 144 150 174 158 168 167 186 171 132 158 151 150 152 161 168 176 173 180 176 168 170 177 180 175 172 176 181 183 180 180 183 185 186 192 195 198 204 204 201 207 211 217 218 212 205 210 212 214 212 210 213 217 218 221 227 228 229 231 228 237
149 154 157 168 182 181 175 177 180 157 142 142 149 146 150 161 173 176 184 180 173 175 178 184 175 173 181 188 183 186 189 194 189 192 198 193 195 195 206 204 206 208 207 211 202 193 206 221 218 214 204 204 199 201 199 205 212 218 204 211 204 201
162 172 174 185 179 176 184 190 175 158 153 157 152 155 159 173 177 171 163 161 159 178 181 183 177 188 187 190 198 212 200 190 193 204 218 220 203 201 199 200 212 214 210 199 193 187 207 218 219 221 205 198 191 185 184 195 202 198 205 205 206 205
169 174 190 191 172 184 192 192 187 181 167 154 161 159 165 161 152 156 167 165 174 170 173 187 191 192 191 191 200 206 233 248 224 222 215 220 207 219 229 216 216 211 190 201 213 194 197 204 215 210 201 197 197 198 196 197 199 200 198 205 215 210
167 189 206 201 173 197 203 205 193 185 186 173 171 169 162 150 155 165 165 167 191 190 189 187 189 195 197 200 198 202 213 233 245 232 231 229 217 221 225 227 230 217 201 196 211 221 232 243 222 203 198 199 198 199 202 204 205 204 202 205 207 228
186 198 211 186 185 195 196 203 212 198 189 189 185 185 164 169 165 180 192 194 196 185 189 192 190 185 192 200 197 198 203 210 227 251 237 232 228 224 225 228 229 225 217 210 209 196 225 225 214 202 199 198 199 200 203 206 207 206 208 213 220 217
203 203 163 153 171 180 187 196 222 200 188 182 182 179 181 190 191 193 195 193 188 189 189 187 188 193 191 195 195 203 200 205 213 224 236 228 230 230 231 230 229 227 226 222 216 206 199 200 204 203 198 198 199 203 206 208 210 212 217 222 226 201
186 166 164 175 177 184 184 210 216 200 192 174 180 187 198 202 214 221 201 193 192 185 191 195 197 194 201 201 200 201 200 212 213 223 215 191 221 238 237 233 229 227 226 226 221 214 206 204 204 203 200 200 202 206 209 211 216 220 221 220 222 209
175 188 198 195 191 187 201 224 210 184 180 178 180 189 203 210 212 219 210 184 181 196 204 203 203 204 203 196 202 203 204 213 211 207 203 198 203 213 217 214 222 225 223 222 220 217 209 204 206 204 202 204 206 208 210 213 214 216 222 227 218 199
181 204 198 188 192 203 221 250 202 176 179 180 181 190 202 206 208 209 212 203 192 197 205 203 207 206 205 208 214 208 212 199 188 202 211 209 215 217 220 223 214 211 226 221 220 217 213 209 204 204 205 207 211 212 209 209 208 205 213 216 197 194